When you browse on this site, cookies collect data to enhance your experience and personalize the content and advertising you see.
Visit our Privacy Policy to learn more. By continuing to use the site, you agree to this use of cookies and data.
  • en Belgique
  • Liste des pays
  • À 7 jours
  • Température de l'eau
  • Carte météo
  • Widgets météo
  • user-avatar
    Se connecter

    Météo par heure à Rechytsa

    Ce jour, 1 Juin, Lundi

    Heure Température Précipitation Vent Pression Humidité
    00:00 +8°C° 0 mm 4 m/s 746 mmHg 93%
    01:00 +7°C° 0 mm 4 m/s 747 mmHg 93%
    02:00 +8°C° 0 mm 3 m/s 747 mmHg 95%
    03:00 +7°C° 0 mm 4 m/s 747 mmHg 93%
    04:00 +8°C° 0 mm 5 m/s 747 mmHg 92%
    05:00 +8°C° 0 mm 5 m/s 746 mmHg 91%
    06:00 +8°C° 0 mm 6 m/s 747 mmHg 86%
    07:00 +9°C° 0 mm 6 m/s 747 mmHg 80%
    08:00 +10°C° 0 mm 5 m/s 747 mmHg 73%
    09:00 +10°C° 0.2 mm 5 m/s 747 mmHg 70%
    10:00 +12°C° 0.2 mm 5 m/s 747 mmHg 66%
    11:00 +11°C° 0.2 mm 6 m/s 747 mmHg 63%
    12:00 +13°C° 0.4 mm 6 m/s 747 mmHg 65%
    13:00 +13°C° 0.4 mm 6 m/s 747 mmHg 67%
    14:00 +13°C° 0.4 mm 6 m/s 746 mmHg 69%
    15:00 +11°C° 0.5 mm 6 m/s 746 mmHg 75%
    16:00 +10°C° 0.5 mm 6 m/s 746 mmHg 80%
    17:00 +9°C° 0.5 mm 6 m/s 746 mmHg 86%
    18:00 +8°C° 0.1 mm 5 m/s 745 mmHg 88%
    19:00 +8°C° 0.1 mm 5 m/s 745 mmHg 91%
    20:00 +7°C° 0.1 mm 4 m/s 745 mmHg 94%
    21:00 +7°C° 0.2 mm 4 m/s 744 mmHg 95%
    22:00 +7°C° 0.2 mm 4 m/s 744 mmHg 95%
    23:00 +8°C° 0.2 mm 3 m/s 743 mmHg 96%

    Demain, 2 Juin, Mardi

    Heure Température Précipitation Vent Pression Humidité
    00:00 +8°C° 0.2 mm 3 m/s 743 mmHg 96%
    01:00 +8°C° 0.2 mm 2 m/s 742 mmHg 96%
    02:00 +8°C° 0.2 mm 2 m/s 742 mmHg 97%
    03:00 +8°C° 0.3 mm 2 m/s 741 mmHg 97%
    04:00 +8°C° 0.3 mm 2 m/s 741 mmHg 97%
    05:00 +9°C° 0.3 mm 2 m/s 740 mmHg 98%
    06:00 +9°C° 0.3 mm 2 m/s 740 mmHg 96%
    07:00 +10°C° 0.3 mm 2 m/s 741 mmHg 94%
    08:00 +10°C° 0.3 mm 2 m/s 741 mmHg 92%
    09:00 +11°C° 0.1 mm 3 m/s 741 mmHg 86%
    10:00 +12°C° 0.1 mm 3 m/s 741 mmHg 80%
    11:00 +13°C° 0.1 mm 4 m/s 741 mmHg 74%
    12:00 +14°C° 0.3 mm 4 m/s 741 mmHg 72%
    13:00 +14°C° 0.3 mm 5 m/s 741 mmHg 70%
    14:00 +15°C° 0.3 mm 5 m/s 741 mmHg 68%
    15:00 +14°C° 0.2 mm 5 m/s 741 mmHg 68%
    16:00 +14°C° 0.2 mm 5 m/s 741 mmHg 68%
    17:00 +14°C° 0.2 mm 4 m/s 741 mmHg 68%
    18:00 +13°C° 0.1 mm 4 m/s 742 mmHg 74%
    19:00 +11°C° 0.1 mm 3 m/s 742 mmHg 81%
    20:00 +10°C° 0.1 mm 3 m/s 742 mmHg 88%
    21:00 +9°C° 0 mm 3 m/s 742 mmHg 90%
    22:00 +8°C° 0 mm 3 m/s 742 mmHg 92%
    23:00 +8°C° 0 mm 3 m/s 743 mmHg 94%

    Après-demain, 3 Juin, Mercredi

    Heure Température Précipitation Vent Pression Humidité
    00:00 +7°C° 0 mm 3 m/s 743 mmHg 94%
    01:00 +7°C° 0 mm 3 m/s 743 mmHg 95%
    02:00 +5°C° 0 mm 3 m/s 743 mmHg 96%
    03:00 +7°C° 0 mm 3 m/s 743 mmHg 96%
    04:00 +7°C° 0 mm 3 m/s 743 mmHg 95%
    05:00 +7°C° 0 mm 2 m/s 743 mmHg 95%
    06:00 +9°C° 0 mm 3 m/s 743 mmHg 90%
    07:00 +11°C° 0 mm 3 m/s 743 mmHg 84%
    08:00 +13°C° 0 mm 4 m/s 743 mmHg 78%
    09:00 +14°C° 0.1 mm 4 m/s 743 mmHg 73%
    10:00 +15°C° 0.1 mm 5 m/s 743 mmHg 67%
    11:00 +16°C° 0.1 mm 5 m/s 742 mmHg 62%
    12:00 +16°C° 0.1 mm 5 m/s 742 mmHg 61%
    13:00 +17°C° 0.1 mm 5 m/s 742 mmHg 60%
    14:00 +17°C° 0.1 mm 5 m/s 742 mmHg 60%
    15:00 +17°C° 0.2 mm 5 m/s 742 mmHg 63%
    16:00 +17°C° 0.2 mm 4 m/s 742 mmHg 66%
    17:00 +17°C° 0.2 mm 4 m/s 741 mmHg 69%
    18:00 +15°C° 0.1 mm 4 m/s 741 mmHg 75%
    19:00 +13°C° 0.1 mm 3 m/s 741 mmHg 81%
    20:00 +13°C° 0.1 mm 2 m/s 741 mmHg 87%
    21:00 +12°C° 0 mm 2 m/s 741 mmHg 89%
    22:00 +10°C° 0 mm 2 m/s 741 mmHg 91%
    23:00 +9°C° 0 mm 2 m/s 741 mmHg 93%

    4 Juin, Jeudi

    Heure Température Précipitation Vent Pression Humidité
    00:00 +9°C° 0 mm 2 m/s 741 mmHg 94%
    01:00 +10°C° 0 mm 1 m/s 741 mmHg 94%
    02:00 +10°C° 0 mm 1 m/s 741 mmHg 95%
    03:00 +10°C° 0 mm 1 m/s 741 mmHg 95%
    04:00 +10°C° 0 mm 1 m/s 741 mmHg 95%
    05:00 +9°C° 0 mm 2 m/s 741 mmHg 96%
    06:00 +12°C° 0 mm 2 m/s 741 mmHg 90%
    07:00 +13°C° 0 mm 2 m/s 741 mmHg 84%
    08:00 +14°C° 0 mm 3 m/s 741 mmHg 79%
    09:00 +16°C° 0.2 mm 3 m/s 741 mmHg 74%
    10:00 +17°C° 0.2 mm 4 m/s 741 mmHg 70%
    11:00 +18°C° 0.2 mm 4 m/s 741 mmHg 65%
    12:00 +18°C° 0.3 mm 4 m/s 741 mmHg 64%
    13:00 +17°C° 0.3 mm 5 m/s 741 mmHg 63%
    14:00 +19°C° 0.3 mm 5 m/s 740 mmHg 63%
    15:00 +17°C° 0.4 mm 5 m/s 740 mmHg 66%
    16:00 +17°C° 0.4 mm 5 m/s 740 mmHg 69%
    17:00 +17°C° 0.4 mm 4 m/s 740 mmHg 72%
    18:00 +15°C° 0.3 mm 4 m/s 740 mmHg 78%
    19:00 +13°C° 0.3 mm 3 m/s 740 mmHg 84%
    20:00 +12°C° 0.3 mm 3 m/s 740 mmHg 90%
    21:00 +12°C° 0 mm 3 m/s 741 mmHg 91%
    22:00 +11°C° 0 mm 3 m/s 741 mmHg 92%
    23:00 +11°C° 0 mm 3 m/s 741 mmHg 93%

    5 Juin, Vendredi

    Heure Température Précipitation Vent Pression Humidité
    00:00 +11°C° 0.1 mm 3 m/s 741 mmHg 93%
    01:00 +11°C° 0.1 mm 3 m/s 741 mmHg 94%
    02:00 +11°C° 0.1 mm 3 m/s 741 mmHg 95%
    03:00 +11°C° 0.1 mm 3 m/s 741 mmHg 95%
    04:00 +11°C° 0.1 mm 3 m/s 741 mmHg 96%
    05:00 +10°C° 0.1 mm 2 m/s 741 mmHg 97%
    06:00 +13°C° 0.1 mm 2 m/s 742 mmHg 92%
    07:00 +14°C° 0.1 mm 3 m/s 742 mmHg 88%
    08:00 +16°C° 0.1 mm 3 m/s 742 mmHg 84%
    09:00 +18°C° 0.2 mm 3 m/s 742 mmHg 75%
    10:00 +19°C° 0.2 mm 3 m/s 742 mmHg 67%
    11:00 +21°C° 0.2 mm 3 m/s 742 mmHg 58%
    12:00 +21°C° 0.1 mm 3 m/s 742 mmHg 57%
    13:00 +22°C° 0.1 mm 3 m/s 742 mmHg 55%
    14:00 +24°C° 0.1 mm 3 m/s 742 mmHg 54%
    15:00 +24°C° 0 mm 2 m/s 742 mmHg 55%
    16:00 +24°C° 0 mm 2 m/s 742 mmHg 57%
    17:00 +24°C° 0 mm 2 m/s 742 mmHg 58%
    18:00 +21°C° 0 mm 2 m/s 742 mmHg 66%
    19:00 +19°C° 0 mm 3 m/s 742 mmHg 74%
    20:00 +17°C° 0 mm 3 m/s 742 mmHg 83%
    21:00 +16°C° 0 mm 3 m/s 743 mmHg 86%
    22:00 +16°C° 0 mm 3 m/s 743 mmHg 90%
    23:00 +14°C° 0 mm 3 m/s 743 mmHg 94%

    6 Juin, Samedi

    Heure Température Précipitation Vent Pression Humidité
    00:00 +15°C° 0 mm 2 m/s 743 mmHg 93%
    01:00 +15°C° 0 mm 2 m/s 743 mmHg 93%
    02:00 +15°C° 0 mm 2 m/s 743 mmHg 93%
    03:00 +15°C° 0 mm 2 m/s 743 mmHg 93%
    04:00 +15°C° 0 mm 2 m/s 743 mmHg 94%
    05:00 +15°C° 0 mm 2 m/s 743 mmHg 95%
    06:00 +17°C° 0 mm 2 m/s 744 mmHg 89%
    07:00 +19°C° 0 mm 2 m/s 744 mmHg 83%
    08:00 +21°C° 0 mm 3 m/s 744 mmHg 77%
    09:00 +22°C° 0 mm 3 m/s 744 mmHg 73%
    10:00 +23°C° 0 mm 4 m/s 744 mmHg 68%
    11:00 +26°C° 0 mm 4 m/s 744 mmHg 63%
    12:00 +26°C° 0.1 mm 4 m/s 743 mmHg 63%
    13:00 +27°C° 0.1 mm 4 m/s 743 mmHg 62%
    14:00 +27°C° 0.1 mm 5 m/s 743 mmHg 62%
    15:00 +26°C° 0.9 mm 4 m/s 743 mmHg 68%
    16:00 +25°C° 0.9 mm 4 m/s 742 mmHg 75%
    17:00 +23°C° 0.9 mm 4 m/s 742 mmHg 81%
    18:00 +22°C° 0.5 mm 3 m/s 742 mmHg 84%
    19:00 +21°C° 0.5 mm 3 m/s 742 mmHg 87%
    20:00 +20°C° 0.5 mm 2 m/s 742 mmHg 90%
    21:00 +19°C° 0.4 mm 2 m/s 742 mmHg 92%
    22:00 +18°C° 0.4 mm 2 m/s 742 mmHg 93%
    23:00 +17°C° 0.4 mm 3 m/s 742 mmHg 95%
    Voir plus